TimeCST,TemperatureF,Dew PointF,Humidity,Sea Level PressureIn,VisibilityMPH,Wind Direction,Wind SpeedMPH,Gust SpeedMPH,PrecipitationIn,Events,Conditions,WindDirDegrees,DateUTC
12:15 AM,23.0,23.0,100,30.24,0.2,West,8.1,-,N/A,,Overcast,270,2012-02-06 06:15:00
12:35 AM,23.0,23.0,100,30.24,0.2,West,6.9,-,N/A,,Overcast,260,2012-02-06 06:35:00
12:55 AM,23.4,23.4,100,30.24,0.2,WSW,6.9,-,N/A,,Overcast,250,2012-02-06 06:55:00
1:15 AM,23.4,23.4,100,30.24,0.2,WSW,6.9,-,N/A,,Overcast,250,2012-02-06 07:15:00
1:35 AM,23.0,23.0,100,30.23,0.2,West,5.8,-,N/A,,Overcast,270,2012-02-06 07:35:00
1:55 AM,22.6,22.6,100,30.23,0.2,West,6.9,-,N/A,,Overcast,270,2012-02-06 07:55:00
2:15 AM,22.5,22.5,100,30.23,0.2,WSW,5.8,-,N/A,,Overcast,250,2012-02-06 08:15:00
2:35 AM,22.5,22.5,100,30.22,0.2,West,4.6,-,N/A,,Overcast,270,2012-02-06 08:35:00
2:55 AM,22.1,21.9,99,30.22,0.2,WSW,5.8,-,N/A,,Overcast,250,2012-02-06 08:55:00
3:15 AM,21.2,21.2,100,30.22,0.2,WSW,6.9,-,N/A,,Overcast,250,2012-02-06 09:15:00
3:35 AM,21.0,20.8,99,30.21,0.2,West,6.9,-,N/A,,Overcast,260,2012-02-06 09:35:00
3:55 AM,20.8,20.3,98,30.21,0.2,West,6.9,-,N/A,,Overcast,260,2012-02-06 09:55:00
4:15 AM,20.5,20.3,99,30.20,0.2,WSW,8.1,-,N/A,,Overcast,250,2012-02-06 10:15:00
4:35 AM,20.1,19.8,99,30.20,0.2,WSW,6.9,-,N/A,,Overcast,250,2012-02-06 10:35:00
4:55 AM,19.4,18.7,97,30.19,0.2,SW,4.6,-,N/A,,Overcast,230,2012-02-06 10:55:00
5:15 AM,19.2,18.9,98,30.18,0.2,WSW,5.8,-,N/A,,Overcast,240,2012-02-06 11:15:00
5:35 AM,18.3,17.6,97,30.18,0.2,SW,4.6,-,N/A,,Overcast,230,2012-02-06 11:35:00
5:55 AM,17.4,16.7,97,30.18,0.5,WSW,5.8,-,N/A,,Overcast,240,2012-02-06 11:55:00
6:15 AM,15.8,14.9,96,30.17,0.5,WSW,4.6,-,N/A,,Overcast,240,2012-02-06 12:15:00
6:35 AM,17.1,16.5,98,30.16,0.2,WSW,6.9,-,N/A,,Overcast,240,2012-02-06 12:35:00
6:55 AM,16.7,15.8,96,30.16,0.2,WSW,4.6,-,N/A,,Overcast,240,2012-02-06 12:55:00
7:15 AM,16.7,15.8,96,30.16,0.2,SW,3.5,-,N/A,,Overcast,230,2012-02-06 13:15:00
7:35 AM,16.7,16.2,98,30.16,0.2,WSW,5.8,-,N/A,,Overcast,240,2012-02-06 13:35:00
7:55 AM,16.7,16.2,98,30.17,0.2,WSW,6.9,-,N/A,,Overcast,240,2012-02-06 13:55:00
8:15 AM,16.9,16.0,96,30.17,0.5,WSW,6.9,-,N/A,,Overcast,240,2012-02-06 14:15:00
8:35 AM,18.1,17.6,98,30.17,1.0,WSW,6.9,-,N/A,,Overcast,250,2012-02-06 14:35:00
8:55 AM,18.5,18.1,98,30.17,0.2,WSW,4.6,-,N/A,,Overcast,250,2012-02-06 14:55:00
9:15 AM,19.6,19.2,99,30.17,0.2,WSW,3.5,-,N/A,,Overcast,240,2012-02-06 15:15:00
9:35 AM,20.3,20.1,99,30.17,0.2,SW,4.6,-,N/A,,Overcast,230,2012-02-06 15:35:00
9:55 AM,21.9,21.6,99,30.17,0.2,WSW,4.6,-,N/A,,Overcast,240,2012-02-06 15:55:00
10:15 AM,24.3,24.3,100,30.17,2.5,SW,3.5,-,N/A,,Mostly Cloudy,220,2012-02-06 16:15:00
10:35 AM,24.3,24.3,100,30.16,0.5,WSW,4.6,-,N/A,,Overcast,240,2012-02-06 16:35:00
10:55 AM,26.2,26.2,100,30.16,5.0,WSW,4.6,-,N/A,,Mostly Cloudy,240,2012-02-06 16:55:00
11:15 AM,27.5,27.5,100,30.16,7.0,WSW,5.8,-,N/A,,Scattered Clouds,250,2012-02-06 17:15:00
11:35 AM,27.5,27.5,100,30.15,1.2,WSW,4.6,-,N/A,,Mostly Cloudy,250,2012-02-06 17:35:00
11:55 AM,28.2,28.2,100,30.14,2.0,WSW,4.6,-,N/A,,Mostly Cloudy,240,2012-02-06 17:55:00
12:15 PM,28.9,28.9,100,30.13,1.8,West,4.6,-,N/A,,Overcast,260,2012-02-06 18:15:00
12:35 PM,28.9,28.9,100,30.13,2.0,WSW,4.6,-,N/A,,Overcast,250,2012-02-06 18:35:00
12:55 PM,29.8,29.8,100,30.12,2.0,WSW,4.6,-,N/A,,Overcast,250,2012-02-06 18:55:00
1:15 PM,30.0,30.0,100,30.11,2.0,WSW,5.8,-,N/A,,Overcast,250,2012-02-06 19:15:00
1:35 PM,30.0,30.0,100,30.10,2.0,WSW,6.9,-,N/A,,Overcast,250,2012-02-06 19:35:00
1:55 PM,30.2,30.2,100,30.09,3.0,WSW,6.9,-,N/A,,Scattered Clouds,250,2012-02-06 19:55:00
2:15 PM,31.6,31.6,100,30.09,4.0,WSW,9.2,-,N/A,,Clear,250,2012-02-06 20:15:00
2:35 PM,32.0,32.0,100,30.08,5.0,WSW,11.5,-,N/A,,Clear,240,2012-02-06 20:35:00
2:55 PM,34.0,34.0,100,30.08,5.0,WSW,9.2,-,N/A,,Clear,250,2012-02-06 20:55:00
3:15 PM,35.6,34.7,97,30.08,7.0,WSW,8.1,-,N/A,,Clear,250,2012-02-06 21:15:00
3:35 PM,37.2,32.7,84,30.08,7.0,WSW,9.2,-,N/A,,Clear,250,2012-02-06 21:35:00
3:55 PM,37.6,32.0,80,30.09,7.0,West,9.2,-,N/A,,Clear,270,2012-02-06 21:55:00
4:15 PM,37.8,32.2,80,30.09,10.0,West,8.1,-,N/A,,Clear,260,2012-02-06 22:15:00
4:35 PM,37.8,32.4,81,30.09,10.0,WSW,10.4,-,N/A,,Clear,250,2012-02-06 22:35:00
4:55 PM,36.5,32.0,84,30.09,10.0,WSW,10.4,-,N/A,,Clear,250,2012-02-06 22:55:00
5:15 PM,34.2,30.6,87,30.10,10.0,West,8.1,-,N/A,,Clear,260,2012-02-06 23:15:00
5:35 PM,32.2,29.1,88,30.10,10.0,West,6.9,-,N/A,,Clear,270,2012-02-06 23:35:00
5:55 PM,30.6,28.2,91,30.11,10.0,West,8.1,-,N/A,,Clear,270,2012-02-06 23:55:00
6:15 PM,29.3,27.7,94,30.11,10.0,West,8.1,-,N/A,,Clear,270,2012-02-07 00:15:00
6:35 PM,28.9,27.5,94,30.11,7.0,West,8.1,-,N/A,,Clear,260,2012-02-07 00:35:00
6:55 PM,27.5,26.2,95,30.11,7.0,WSW,5.8,-,N/A,,Clear,250,2012-02-07 00:55:00
7:15 PM,27.1,26.4,97,30.11,7.0,WSW,8.1,-,N/A,,Clear,250,2012-02-07 01:15:00
7:35 PM,26.6,25.3,95,30.12,7.0,West,5.8,-,N/A,,Clear,270,2012-02-07 01:35:00
7:55 PM,26.6,25.3,95,30.13,7.0,West,9.2,-,N/A,,Clear,270,2012-02-07 01:55:00
8:15 PM,26.2,25.2,96,30.13,7.0,West,9.2,-,N/A,,Clear,280,2012-02-07 02:15:00
8:35 PM,25.7,24.6,96,30.14,7.0,West,10.4,-,N/A,,Clear,280,2012-02-07 02:35:00
8:55 PM,25.7,24.8,96,30.14,7.0,WNW,11.5,-,N/A,,Clear,300,2012-02-07 02:55:00
9:15 PM,28.4,26.6,93,30.16,7.0,NNW,9.2,-,N/A,,Clear,330,2012-02-07 03:15:00
9:35 PM,29.5,27.5,92,30.16,10.0,North,12.7,-,N/A,,Clear,10,2012-02-07 03:35:00
9:55 PM,30.2,27.1,88,30.16,10.0,North,13.8,19.6,N/A,,Clear,10,2012-02-07 03:55:00
10:15 PM,29.8,27.0,89,30.17,10.0,North,13.8,-,N/A,,Clear,10,2012-02-07 04:15:00
10:35 PM,28.9,26.6,91,30.17,10.0,North,16.1,20.7,N/A,,Clear,10,2012-02-07 04:35:00
10:55 PM,28.8,26.6,92,30.18,10.0,NNE,17.3,-,N/A,,Clear,20,2012-02-07 04:55:00
11:15 PM,28.4,26.4,92,30.20,10.0,North,13.8,19.6,N/A,,Clear,10,2012-02-07 05:15:00
11:35 PM,27.9,25.7,92,30.20,10.0,North,17.3,-,N/A,,Clear,10,2012-02-07 05:35:00
11:55 PM,27.5,25.7,93,30.20,10.0,North,16.1,-,N/A,,Clear,10,2012-02-07 05:55:00